Dewpoint
29 30 30 30 29 30 29 28 28 31 31 31 32 34 33 33 33 33 33 33 33 35 34 35 35 36 37
27 29 29 29 29 28 26 27 28 28 30 31 31 32 33 33 32 32 32 32 32 33 33 33 34 34 35
27 28 29 29 27 27 27 28 28 28 29 30 30 32 31 30 30 32 32 30 31 32 32 32 32 32 34
27 27 27 27 27 25 26 27 27 26 28 30 30 29 29 28 28 30 30 31 31 31 30 30 30 31 32
26 25 25 25 24 25 26 26 26 28 27 27 28 28 27 26 27 27 28 29 30 30 30 30 30 30 30
25 24 24 24 25 26 27 26 23 28 27 26 28 26 25 25 26 27 27 30 30 30 29 29 30 30 30
24 24 24 25 26 27 27 27 24 26 28 25 25 24 25 23 27 26 32 29 30 29 28 29 29 29 29
27 26 26 28 28 28 27 26 27 30 29 24 24 22 23 24 25 29 30 29 28 28 27 28 28 29 29
32 30 31 32 30 28 27 28 27 26 26 25 24 23 23 22 23 26 28 27 26 26 27 27 28 28 28
35 35 34 33 32 31 30 29 27 25 25 24 24 23 21 22 22 22 22 23 25 26 25 26 27 26 26
30 32 32 30 30 31 32 30 27 26 24 26 26 24 23 22 22 22 22 22 22 23 24 25 26 27 26
30 29 28 27 29 29 29 28 28 27 25 27 26 24 23 21 21 21 21 22 23 24 23 24 25 25 25
28 29 29 28 29 29 30 29 26 26 26 26 25 24 23 22 21 21 22 22 23 23 24 23 23 23 23
29 30 31 30 29 28 27 25 24 24 25 26 26 25 23 23 22 22 22 22 23 23 23 23 23 23 23
31 29 29 28 28 28 25 24 23 22 22 23 24 24 24 23 21 21 21 21 22 23 22 22 22 22 22
30 29 28 27 26 26 24 23 22 23 22 23 22 21 20 20 23 21 20 21 22 22 22 22 21 23 22
29 28 28 27 27 24 24 23 23 23 22 23 21 19 17 17 18 23 22 22 22 21 21 21 21 22 22
Wind_Speed
13 9 9 11 9 7 8 9 10 11 13 14 15 13 10 12 12 11 10 11 11 11 9 10 12 13 13
18 13 12 10 9 9 8 8 9 11 13 15 14 12 12 14 14 12 10 10 10 10 8 9 11 13 12
20 12 10 7 8 8 9 9 9 11 13 14 12 10 12 14 14 13 9 11 9 9 7 9 10 12 12
19 18 14 10 8 10 11 7 9 9 10 8 6 10 13 12 13 10 9 9 8 7 5 8 9 10 12
19 16 17 11 11 6 8 9 10 7 5 7 8 9 9 9 9 10 10 13 12 7 5 8 9 8 11
20 20 21 15 11 10 9 6 6 4 4 11 9 11 9 7 9 11 14 13 12 8 5 9 7 9 11
24 23 19 17 12 11 11 10 11 7 6 13 7 11 8 7 9 13 11 9 11 4 6 9 8 11 11
24 20 18 13 15 12 11 9 8 9 7 8 3 8 8 7 8 7 5 4 0 6 11 10 10 12 11
26 21 18 17 15 10 10 10 8 7 7 5 5 4 5 4 2 4 3 5 7 10 10 13 13 12 8
21 17 18 18 20 17 12 12 8 4 4 8 3 2 4 2 3 4 6 7 9 8 14 11 9 8 8
18 13 15 14 13 11 13 13 10 11 5 7 5 4 3 5 5 7 7 7 10 10 8 8 7 7 9
15 14 15 15 12 11 12 11 10 11 6 12 4 8 5 9 9 3 7 10 10 6 6 7 9 10 11
14 12 12 12 10 7 7 7 7 8 9 9 8 7 9 10 12 11 10 4 9 8 4 7 8 6 8
13 11 9 9 10 9 8 10 8 8 8 9 9 9 10 12 13 16 11 7 4 8 9 10 8 8 9
14 12 12 10 9 9 9 10 9 7 7 6 7 8 10 11 14 16 14 14 13 12 8 11 10 9 9
11 11 11 11 10 8 9 10 12 9 7 5 4 3 4 9 21 17 12 12 10 10 10 12 17 10 9
12 11 9 10 10 10 11 11 11 9 7 6 6 5 8 10 4 17 12 9 10 12 12 13 15 18 15
Wind_Direction
263 255 257 266 273 273 275 274 276 268 284 291 299 282 292 305 306 305 310 320 325 325 337 344 350 349 357
255 256 246 255 260 273 269 269 267 268 281 288 287 274 285 296 298 290 299 306 313 317 333 340 348 344 354
249 249 248 236 258 264 259 269 262 265 283 284 271 272 286 292 290 282 285 288 294 304 328 340 345 338 352
240 248 253 245 237 259 270 254 270 276 278 252 245 288 293 286 280 275 271 275 279 286 319 331 339 337 345
234 236 240 230 234 232 247 270 275 262 244 233 277 295 287 283 267 264 265 275 267 264 295 322 327 328 335
227 229 238 231 226 226 241 258 287 194 241 281 279 287 281 268 258 272 288 266 246 223 300 316 324 327 324
220 224 227 218 217 216 225 234 248 262 256 286 284 281 278 272 261 289 270 246 206 217 301 313 304 321 318
220 227 216 209 204 209 225 239 250 253 243 276 266 282 293 285 282 254 172 125 202 288 298 306 302 310 306
218 216 207 212 197 192 210 214 237 243 205 254 271 281 291 292 228 231 235 273 283 292 294 304 300 298 293
212 205 216 211 208 204 208 209 209 269 208 202 212 292 300 251 235 232 285 283 293 282 298 292 292 296 287
212 209 215 206 206 195 192 202 213 230 192 191 205 196 250 289 271 259 265 275 289 294 288 285 280 269 281
200 201 204 208 202 203 202 204 214 228 218 196 211 216 238 277 274 244 274 285 279 270 287 273 277 281 269
195 193 195 196 189 184 194 204 213 220 209 201 215 221 235 248 270 280 303 275 274 266 259 285 285 279 286
186 184 181 180 186 181 187 187 198 211 208 208 218 224 242 249 259 270 271 275 253 277 289 285 273 265 266
181 175 181 181 185 180 188 184 197 195 202 213 222 231 242 247 261 263 270 269 273 285 292 293 286 278 273
170 173 183 185 184 183 188 197 207 208 213 212 206 232 267 258 230 248 264 269 282 291 297 297 300 299 287
178 180 178 191 192 199 196 202 214 215 220 203 196 216 252 264 290 225 245 267 285 286 279 276 281 290 297